Location: Perryvale
(54.4667°N, 113.3833°W)
Time: 00:09:42
(UTC+00:00)

Vanguard 3 - Pass Details

Date: 27 May 2024
Orbit: 509 x 3231 km, 33.3° (Epoch: 21 June)

Event Time Altitude Azimuth Distance (km) Brightness Sun altitude
Rises 04:56:21 0° 251° (WSW) 4,682 11.3 -7.3°
Reaches altitude 10° 04:59:56 10° 237° (WSW) 4,098 10.8 -7.6°
Maximum altitude 05:08:15 23° 191° (SSW) 3,935 10.2 -8.2°
Enters shadow 05:19:34 10° 149° (SSE) 5,724 10.7 -9.1°
